TimeHST,TemperatureF,Dew PointF,Humidity,Sea Level PressureIn,VisibilityMPH,Wind Direction,Wind SpeedMPH,Gust SpeedMPH,PrecipitationIn,Events,Conditions,WindDirDegrees,DateUTC
12:54 AM,66.9,60.1,79,30.09,10.0,ENE,5.8,-,0.00,,Partly Cloudy,60,2013-02-15 10:54:00
1:54 AM,66.0,59.0,78,30.07,10.0,NE,9.2,-,N/A,,Clear,40,2013-02-15 11:54:00
2:54 AM,66.9,57.9,73,30.06,10.0,NE,6.9,-,N/A,,Partly Cloudy,50,2013-02-15 12:54:00
3:54 AM,64.9,57.0,75,30.06,10.0,NE,8.1,-,N/A,,Mostly Cloudy,50,2013-02-15 13:54:00
4:54 AM,66.9,60.1,79,30.05,10.0,NE,13.8,-,N/A,,Mostly Cloudy,40,2013-02-15 14:54:00
5:54 AM,68.0,57.9,70,30.06,10.0,NE,13.8,-,N/A,,Clear,40,2013-02-15 15:54:00
6:54 AM,66.0,57.9,75,30.08,10.0,NNE,6.9,-,N/A,,Partly Cloudy,30,2013-02-15 16:54:00
7:54 AM,70.0,59.0,68,30.09,10.0,North,10.4,-,N/A,,Partly Cloudy,10,2013-02-15 17:54:00
8:54 AM,73.9,59.0,59,30.09,10.0,ENE,9.2,-,N/A,,Partly Cloudy,70,2013-02-15 18:54:00
9:54 AM,75.9,57.9,54,30.10,10.0,ESE,5.8,25.3,N/A,,Partly Cloudy,120,2013-02-15 19:54:00
10:54 AM,77.0,64.0,64,30.09,10.0,NE,19.6,31.1,N/A,,Partly Cloudy,50,2013-02-15 20:54:00
12:54 PM,78.1,64.0,62,30.03,10.0,ENE,21.9,35.7,N/A,,Scattered Clouds,60,2013-02-15 22:54:00
1:54 PM,79.0,63.0,58,30.01,10.0,ENE,24.2,38.0,N/A,,Scattered Clouds,60,2013-02-15 23:54:00
2:54 PM,79.0,62.1,56,30.00,10.0,East,26.5,36.8,N/A,,Scattered Clouds,80,2013-02-16 00:54:00
3:54 PM,78.1,62.1,58,30.01,10.0,East,20.7,35.7,N/A,,Scattered Clouds,80,2013-02-16 01:54:00
4:54 PM,75.0,62.1,64,30.03,10.0,East,24.2,32.2,0.00,,Scattered Clouds,80,2013-02-16 02:54:00
5:54 PM,75.0,57.9,55,30.05,10.0,ENE,18.4,33.4,N/A,,Partly Cloudy,70,2013-02-16 03:54:00
6:54 PM,72.0,61.0,68,30.06,10.0,NE,18.4,26.5,N/A,,Partly Cloudy,50,2013-02-16 04:54:00
7:54 PM,72.0,60.1,66,30.09,10.0,ENE,17.3,26.5,N/A,,Clear,60,2013-02-16 05:54:00
8:54 PM,72.0,63.0,73,30.11,10.0,NE,19.6,28.8,N/A,,Partly Cloudy,50,2013-02-16 06:54:00
9:54 PM,71.1,64.0,78,30.12,10.0,ENE,17.3,24.2,N/A,,Partly Cloudy,60,2013-02-16 07:54:00
10:54 PM,71.1,64.0,78,30.13,10.0,NE,13.8,-,N/A,,Clear,50,2013-02-16 08:54:00
11:54 PM,70.0,64.0,81,30.12,10.0,ENE,16.1,28.8,0.00,Rain,Light Rain,60,2013-02-16 09:54:00